Regional Weather Roundup
Issued by NWS Charleston, WV

Home | Current Version | Previous Version | Text Only | Print | Product List | Glossary Off
Versions: 1 2 3 4 5 6 7 8 9 10 11 12 13 14 15 16 17 18 19 20 21 22 23 24 25 26 27 28 29 30 31 32 33 34 35 36 37 38 39 40 41 42 43 44 45 46 47 48 49 50

876
ASUS41 KRLX 090910
RWRRLX
West Virginia Regional Weather Roundup
National Weather Service Charleston WV
400 AM EST TUE FEB 09 2016

Note: "fair" indicates few or no clouds below 12,000 feet with no
significant weather and/or obstructions to visibility.

WVZ003-091000-
Northern Panhandle of West Virginia

CITY           SKY/WX    TMP DP  RH WIND       PRES   REMARKS
WHEELING       CLOUDY    32  30  92 S5        29.52S FOG
$$

WVZ009-091000-
Northwest West Virginia

CITY           SKY/WX    TMP DP  RH WIND       PRES   REMARKS
PARKERSBURG    SNOW      29  27  92 W10G18    29.61R VSB 1/2
$$

WVZ006-091000-
Western West Virginia

CITY           SKY/WX    TMP DP  RH WIND       PRES   REMARKS
HUNTINGTON     FLURRIES  26  19  74 W9        29.68S
$$

WVZ015-091000-
West Central West Virginia

CITY           SKY/WX    TMP DP  RH WIND       PRES   REMARKS
CHARLESTON     LGT SNOW  29  25  85 W10G17    29.64R VSB 1
$$

WVZ022-031-091000-
North Central West Virginia

CITY           SKY/WX    TMP DP  RH WIND       PRES   REMARKS
CLARKSBURG     LGT SNOW  31  31 100 SW6       29.53F FOG
MORGANTOWN     SNOW      32  28  85 CALM      29.53F VSB 1/2
$$

WVZ025-035-042-045-091000-
Southern West Virginia

CITY           SKY/WX    TMP DP  RH WIND       PRES   REMARKS
BECKLEY        LGT SNOW  26  22  84 W9        29.54F FOG
LOGAN          FLURRIES  27  23  86 W8G16     29.63S
BLUEFIELD      LGT SNOW  24  21  88 W8        29.54F FOG
LEWISBURG      FLURRIES  32  26  80 W5        29.53S
$$

WVZ047-091000-
Northern Mountains of West Virginia

CITY           SKY/WX    TMP DP  RH WIND       PRES   REMARKS
ELKINS         LGT SNOW  30  25  81 SW3       29.52F
$$

WVZ052-091000-
Eastern Panhandle of West Virginia

CITY           SKY/WX    TMP DP  RH WIND       PRES   REMARKS
MARTINSBURG    CLOUDY    35  33  92 CALM      29.54F
PETERSBURG     CLOUDY    33  32  95 CALM      29.54F
$$




USA.gov is the U.S. government's official web portal to all federal, state and local government web resources and services.